sat.trackr.live / text

‹ back to catalog

STARLINK-31602

NORAD 59202 · 2024-046B

PAYLOAD ACTIVE UNKNOWN

§ Identity

Operator
Country
US
Launch date
2024-03-11
Launch site
AFWTR
Launch vehicle
Mass (kg)
RCS (m²)

Purposes: comms

External: N2YO · Heavens-Above · Gunter

§ Orbital elements

Epoch: 2026-09-20T11:04:15.833568Z

Period
93.85 min
Inclination
53.1584°
Eccentricity
0.0000858
Mean motion
15.34415469 rev/d
Perigee alt
462.1 km
Apogee alt
463.2 km
Semi-major
6,840.8 km
B*
2.1224e-4
RAAN
326.1277°
Arg perigee
99.8212°
Mean anomaly
260.2888°
Rev number
14,293

§ Raw data

STARLINK-316021 59202U 24046B   26263.46129437  .00006805  00000+0  21224-3 0  99912 59202  53.1584 326.1277 0000858  99.8212 260.2888 15.34415469142931

JSON: /api/v1/satellites/59202 · /tle

For live sub-satellite position, see the globe view (requires WebGL).

§ Visibility from observer

Set your observer location to see the next 7 days of passes ≥ 10°. The values pass through the URL so the page stays shareable.

No JS? Fill the form by hand. The geolocation button needs JavaScript.